Starlink 11306

operational
NORAD ID: 61254 Int'l Des: 2024-175 Owner: SPXS Country: US Constellation: starlink
LEOCIRCULAR

About Starlink 11306

Description loading...

Live Position

Loading 3D Globe...

Upcoming Passes

Altitude History

Altitude vs Time

uPlot chart will show altitude changes over time

Two-Line Element Set

1 61254U 24175M 25346.64755611 .00004686 00000-0 43512-4 0 9995
2 61254 53.1566 125.4877 0001450 126.0900 234.0253 15.69714311 70899
Epoch: Dec 12, 2025 • Age: 16 hours

Current Status

Altitude 372.8 km
Velocity 7.69 km/s
Sub-Earth Point -39.27°S, 140.33°E
Launch Date Sep 25, 2024
Age 1.2 years
Type internet

Technical Details

Classification Payload
Mass 960.00 kg
Dry Mass 910.00 kg
Total Mass 960.00 kg
Length 0.30 m
Diameter 4.10 m
Span 29.00 m
Shape Box + pan
Manufacturer SPXS
Bus Type Starlink V2MD
Phase Status In Orbit
Owner/State SPXS/US

Large Constellations

Loading constellations...